| time (UTC) | temp F | wind direction | speed MPH | gust MPH | rain 1hr in | rain 24hr in | rain mn in | humidity % | barometer mb |
| 20260904201022 | 74 | 335 | 6.0 | 16.0 | 0.00 | 0.00 | 0.00 | 69 | 1011.7 |
| 20260904200022 | 75 | 307 | 13.0 | 16.0 | 0.00 | 0.00 | 0.00 | 67 | 1011.7 |
| 20260904195522 | 75 | 305 | 5.0 | 8.0 | 0.00 | 0.00 | 0.00 | 65 | 1011.7 |
| 20260904195022 | 75 | 319 | 4.0 | 13.0 | 0.00 | 0.00 | 0.00 | 64 | 1011.9 |
| 20260904194524 | 75 | 253 | 4.0 | 13.0 | 0.00 | 0.00 | 0.00 | 65 | 1011.9 |
| 20260904194023 | 75 | 310 | 5.0 | 9.0 | 0.00 | 0.00 | 0.00 | 65 | 1012.0 |
| 20260904193746 | 75 | 3 | 6.0 | 9.0 | 0.00 | 0.00 | 0.00 | 65 | 1012.0 |
| 20260904193020 | 75 | 355 | 7.0 | 8.0 | 0.00 | 0.00 | 0.00 | 64 | 1012.0 |
| 20260904192520 | 75 | 267 | 3.0 | 8.0 | 0.00 | 0.00 | 0.00 | 63 | 1012.2 |
| 20260904192021 | 74 | 278 | 2.0 | 10.0 | 0.00 | 0.00 | 0.00 | 65 | 1012.2 |
| 20260904191521 | 74 | 293 | 5.0 | 10.0 | 0.00 | 0.00 | 0.00 | 65 | 1012.1 |
| 20260904191020 | 74 | 257 | 3.0 | 8.0 | 0.00 | 0.00 | 0.00 | 64 | 1012.1 |
| 20260904190520 | 74 | 279 | 5.0 | 7.0 | 0.00 | 0.00 | 0.00 | 63 | 1012.2 |
| 20260904190022 | 73 | 247 | 2.0 | 7.0 | 0.00 | 0.00 | 0.00 | 65 | 1012.3 |
| 20260904185521 | 73 | 288 | 4.0 | 8.0 | 0.00 | 0.00 | 0.00 | 65 | 1012.4 |
| 20260904185020 | 73 | 260 | 3.0 | 10.0 | 0.00 | 0.00 | 0.00 | 67 | 1012.4 |
| 20260904184520 | 73 | 337 | 4.0 | 13.0 | 0.00 | 0.00 | 0.00 | 68 | 1012.5 |
| 20260904184021 | 73 | 271 | 3.0 | 13.0 | 0.00 | 0.00 | 0.00 | 66 | 1012.6 |
| 20260904183520 | 73 | 317 | 7.0 | 15.0 | 0.00 | 0.00 | 0.00 | 70 | 1012.6 |
| 20260904183020 | 73 | 248 | 6.0 | 15.0 | 0.00 | 0.00 | 0.00 | 68 | 1012.6 |
| 20260904182750 | 73 | 333 | 6.0 | 10.0 | 0.00 | 0.00 | 0.00 | 68 | 1012.5 |
| 20260904182021 | 73 | 348 | 5.0 | 10.0 | 0.00 | 0.00 | 0.00 | 70 | 1012.5 |
| 20260904181742 | 73 | 341 | 4.0 | 10.0 | 0.00 | 0.00 | 0.00 | 69 | 1012.5 |
| 20260904181027 | 73 | 241 | 2.0 | 8.0 | 0.00 | 0.00 | 0.00 | 69 | 1012.7 |
| 20260904180739 | 73 | 350 | 4.0 | 10.0 | 0.00 | 0.00 | 0.00 | 68 | 1012.5 |
| 20260904180020 | 73 | 330 | 6.0 | 10.0 | 0.00 | 0.00 | 0.00 | 70 | 1012.5 |
| 20260904175519 | 73 | 299 | 5.0 | 13.0 | 0.00 | 0.00 | 0.00 | 70 | 1012.5 |
| 20260904175018 | 73 | 263 | 4.0 | 13.0 | 0.00 | 0.00 | 0.00 | 72 | 1012.6 |
| 20260904174519 | 73 | 344 | 8.0 | 9.0 | 0.00 | 0.00 | 0.00 | 70 | 1012.5 |
| 20260904174025 | 73 | 313 | 4.0 | 8.0 | 0.00 | 0.00 | 0.00 | 70 | 1012.5 |
| 20260904173520 | 73 | 264 | 4.0 | 8.0 | 0.00 | 0.00 | 0.00 | 68 | 1012.5 |
| 20260904173241 | 73 | 279 | 2.0 | 8.0 | 0.00 | 0.00 | 0.00 | 68 | 1012.5 |
| 20260904172519 | 73 | 265 | 3.0 | 8.0 | 0.00 | 0.00 | 0.00 | 68 | 1012.5 |
| 20260904172022 | 73 | 322 | 4.0 | 8.0 | 0.00 | 0.00 | 0.00 | 67 | 1012.6 |
| 20260904171521 | 73 | 264 | 4.0 | 8.0 | 0.00 | 0.00 | 0.00 | 67 | 1012.6 |
| 20260904171019 | 73 | 244 | 3.0 | 6.0 | 0.00 | 0.00 | 0.00 | 64 | 1012.6 |
| 20260904170522 | 73 | 229 | 3.0 | 6.0 | 0.00 | 0.00 | 0.00 | 64 | 1012.5 |
| 20260904170020 | 72 | 243 | 1.0 | 8.0 | 0.00 | 0.00 | 0.00 | 63 | 1012.5 |
| 20260904165520 | 72 | 231 | 1.0 | 8.0 | 0.00 | 0.00 | 0.00 | 66 | 1012.6 |
| 20260904165018 | 72 | 273 | 2.0 | 8.0 | 0.00 | 0.00 | 0.00 | 66 | 1012.4 |
| 20260904164020 | 72 | 259 | 3.0 | 7.0 | 0.00 | 0.00 | 0.00 | 66 | 1012.5 |
| 20260904163521 | 72 | 203 | 2.0 | 7.0 | 0.00 | 0.00 | 0.00 | 68 | 1012.3 |
| 20260904163017 | 71 | 311 | 2.0 | 6.0 | 0.00 | 0.00 | 0.00 | 67 | 1012.2 |
| 20260904162738 | 71 | 312 | 1.0 | 5.0 | 0.00 | 0.00 | 0.00 | 67 | 1012.3 |
| 20260904162016 | 71 | 312 | 2.0 | 5.0 | 0.00 | 0.00 | 0.00 | 68 | 1012.2 |
| 20260904161517 | 71 | 314 | 0.0 | 5.0 | 0.00 | 0.00 | 0.00 | 65 | 1012.3 |
| 20260904161018 | 70 | 312 | 0.0 | 5.0 | 0.00 | 0.00 | 0.00 | 69 | 1012.2 |
| 20260904160523 | 70 | 314 | 1.0 | 3.0 | 0.00 | 0.00 | 0.00 | 69 | 1012.2 |
| 20260904160019 | 69 | 314 | 3.0 | 3.0 | 0.00 | 0.00 | 0.00 | 70 | 1012.1 |
| 20260904155519 | 69 | 314 | 1.0 | 3.0 | 0.00 | 0.00 | 0.00 | 71 | 1012.1 |
| 20260904155018 | 69 | 314 | 1.0 | 2.0 | 0.00 | 0.00 | 0.00 | 71 | 1012.1 |
| 20260904154517 | 69 | 313 | 1.0 | 3.0 | 0.00 | 0.00 | 0.00 | 71 | 1012.2 |
| 20260904154238 | 69 | 313 | 2.0 | 5.0 | 0.00 | 0.00 | 0.00 | 73 | 1012.1 |
| 20260904153739 | 69 | 313 | 4.0 | 5.0 | 0.00 | 0.00 | 0.00 | 74 | 1012.1 |
| 20260904153017 | 69 | 313 | 2.0 | 3.0 | 0.00 | 0.00 | 0.00 | 75 | 1012.0 |
| 20260904152516 | 68 | 313 | 2.0 | 3.0 | 0.00 | 0.00 | 0.00 | 74 | 1012.0 |
| 20260904152016 | 68 | 313 | 1.0 | 3.0 | 0.00 | 0.00 | 0.00 | 75 | 1012.0 |
| 20260904151517 | 68 | 313 | 0.0 | 2.0 | 0.00 | 0.00 | 0.00 | 74 | 1011.9 |
| 20260904151017 | 68 | 313 | 2.0 | 2.0 | 0.00 | 0.00 | 0.00 | 75 | 1011.9 |
| 20260904150518 | 67 | 313 | 0.0 | 3.0 | 0.00 | 0.00 | 0.00 | 73 | 1011.9 |
| 20260904150019 | 67 | 313 | 0.0 | 3.0 | 0.00 | 0.00 | 0.00 | 76 | 1011.9 |
| 20260904145515 | 67 | 224 | 0.0 | 2.0 | 0.00 | 0.00 | 0.00 | 73 | 1011.8 |
| 20260904145014 | 67 | 285 | 0.0 | 3.0 | 0.00 | 0.00 | 0.00 | 76 | 1011.9 |
| 20260904144514 | 67 | 315 | 1.0 | 3.0 | 0.00 | 0.00 | 0.00 | 77 | 1011.8 |
| 20260904144014 | 67 | 353 | 0.0 | 2.0 | 0.00 | 0.00 | 0.00 | 77 | 1011.7 |
| 20260904143514 | 67 | 292 | 0.0 | 3.0 | 0.00 | 0.00 | 0.00 | 76 | 1011.7 |
| 20260904143015 | 66 | 28 | 1.0 | 5.0 | 0.00 | 0.00 | 0.00 | 77 | 1011.7 |
| 20260904142736 | 66 | 339 | 1.0 | 5.0 | 0.00 | 0.00 | 0.00 | 78 | 1011.7 |
| 20260904142013 | 66 | 348 | 0.0 | 2.0 | 0.00 | 0.00 | 0.00 | 76 | 1011.7 |
| 20260904141740 | 66 | 230 | 1.0 | 3.0 | 0.00 | 0.00 | 0.00 | 76 | 1011.6 |
| 20260904141016 | 65 | 190 | 2.0 | 3.0 | 0.00 | 0.00 | 0.00 | 78 | 1011.6 |
| 20260904140513 | 65 | 309 | 0.0 | 3.0 | 0.00 | 0.00 | 0.00 | 79 | 1011.5 |
| 20260904140012 | 65 | 259 | 0.0 | 3.0 | 0.00 | 0.00 | 0.00 | 79 | 1011.6 |
| 20260904135513 | 65 | 285 | 1.0 | 3.0 | 0.00 | 0.00 | 0.00 | 80 | 1011.5 |
| 20260904135013 | 65 | 98 | 3.0 | 3.0 | 0.00 | 0.00 | 0.00 | 80 | 1011.5 |
| 20260904134512 | 65 | 215 | 0.0 | 2.0 | 0.00 | 0.00 | 0.00 | 80 | 1011.5 |
| 20260904134019 | 65 | 218 | 1.0 | 2.0 | 0.00 | 0.00 | 0.00 | 79 | 1011.5 |
| 20260904133236 | 65 | 205 | 0.0 | 0.0 | 0.00 | 0.00 | 0.00 | 79 | 1011.4 |
| 20260904132511 | 65 | 232 | 0.0 | 0.0 | 0.00 | 0.00 | 0.00 | 79 | 1011.3 |
| 20260904132012 | 65 | 233 | 0.0 | 0.0 | 0.00 | 0.00 | 0.00 | 79 | 1011.3 |
| 20260904131511 | 65 | 265 | 0.0 | 0.0 | 0.00 | 0.00 | 0.00 | 79 | 1011.3 |
| 20260904131233 | 65 | 297 | 0.0 | 0.0 | 0.00 | 0.00 | 0.00 | 79 | 1011.1 |
| 20260904130512 | 65 | 289 | 0.0 | 0.0 | 0.00 | 0.00 | 0.00 | 79 | 1011.1 |
| 20260904130011 | 65 | 234 | 0.0 | 0.0 | 0.00 | 0.00 | 0.00 | 79 | 1011.1 |
| 20260904125510 | 65 | 222 | 0.0 | 0.0 | 0.00 | 0.00 | 0.00 | 79 | 1011.0 |
| 20260904125012 | 65 | 249 | 0.0 | 0.0 | 0.00 | 0.00 | 0.00 | 80 | 1011.1 |
| 20260904124732 | 65 | 246 | 0.0 | 0.0 | 0.00 | 0.00 | 0.00 | 80 | 1011.1 |
| 20260904124007 | 65 | 239 | 0.0 | 1.0 | 0.00 | 0.00 | 0.00 | 80 | 1011.1 |
| 20260904123510 | 65 | 241 | 0.0 | 2.0 | 0.00 | 0.00 | 0.00 | 80 | 1011.0 |
| 20260904123011 | 65 | 228 | 1.0 | 2.0 | 0.00 | 0.00 | 0.00 | 80 | 1011.0 |
| 20260904122511 | 65 | 230 | 0.0 | 1.0 | 0.00 | 0.00 | 0.00 | 80 | 1011.0 |
| 20260904122010 | 65 | 246 | 0.0 | 2.0 | 0.00 | 0.00 | 0.00 | 80 | 1010.9 |
| 20260904121506 | 65 | 251 | 0.0 | 2.0 | 0.00 | 0.00 | 0.00 | 80 | 1010.9 |
| 20260904121011 | 65 | 228 | 0.0 | 0.0 | 0.00 | 0.00 | 0.00 | 79 | 1010.9 |
| 20260904120511 | 65 | 243 | 0.0 | 2.0 | 0.00 | 0.00 | 0.00 | 80 | 1010.9 |
| 20260904120011 | 65 | 247 | 0.0 | 2.0 | 0.00 | 0.00 | 0.00 | 80 | 1011.0 |
| 20260904115510 | 65 | 258 | 0.0 | 0.0 | 0.00 | 0.00 | 0.00 | 80 | 1011.2 |
| 20260904115010 | 65 | 253 | 0.0 | 1.0 | 0.00 | 0.00 | 0.00 | 80 | 1011.1 |
| 20260904114512 | 65 | 284 | 0.0 | 3.0 | 0.00 | 0.00 | 0.00 | 79 | 1011.1 |
| 20260904114010 | 65 | 327 | 1.0 | 3.0 | 0.00 | 0.00 | 0.00 | 79 | 1011.0 |
| 20260904113509 | 65 | 291 | 0.0 | 0.0 | 0.00 | 0.00 | 0.00 | 80 | 1011.1 |
| 20260904113010 | 65 | 259 | 0.0 | 0.0 | 0.00 | 0.00 | 0.00 | 81 | 1011.2 |
| 20260904112510 | 65 | 258 | 0.0 | 0.0 | 0.00 | 0.00 | 0.00 | 81 | 1011.2 |
| 20260904112009 | 66 | 260 | 0.0 | 0.0 | 0.00 | 0.00 | 0.00 | 80 | 1011.1 |
| 20260904111509 | 66 | 247 | 0.0 | 0.0 | 0.00 | 0.00 | 0.00 | 80 | 1011.2 |
| 20260904111009 | 66 | 251 | 0.0 | 1.0 | 0.00 | 0.00 | 0.00 | 80 | 1011.2 |
| 20260904110509 | 66 | 263 | 0.0 | 2.0 | 0.00 | 0.00 | 0.00 | 81 | 1011.2 |
| 20260904110009 | 66 | 248 | 0.0 | 3.0 | 0.00 | 0.00 | 0.00 | 81 | 1011.1 |
| 20260904105508 | 66 | 261 | 1.0 | 3.0 | 0.00 | 0.00 | 0.00 | 81 | 1011.2 |
| 20260904105009 | 66 | 259 | 0.0 | 0.0 | 0.00 | 0.00 | 0.00 | 82 | 1011.1 |
| 20260904104512 | 66 | 275 | 0.0 | 0.0 | 0.00 | 0.00 | 0.00 | 82 | 1011.0 |
| 20260904104008 | 66 | 258 | 0.0 | 0.0 | 0.00 | 0.00 | 0.00 | 82 | 1011.1 |
| 20260904103732 | 66 | 251 | 0.0 | 0.0 | 0.00 | 0.00 | 0.00 | 82 | 1011.1 |
| 20260904103010 | 66 | 251 | 0.0 | 2.0 | 0.00 | 0.00 | 0.00 | 82 | 1011.0 |
| 20260904102509 | 66 | 264 | 0.0 | 2.0 | 0.00 | 0.00 | 0.00 | 82 | 1011.1 |
| 20260904102007 | 66 | 261 | 0.0 | 0.0 | 0.00 | 0.00 | 0.00 | 82 | 1011.0 |
| 20260904101508 | 66 | 260 | 0.0 | 0.0 | 0.00 | 0.00 | 0.00 | 82 | 1011.0 |
| 20260904101007 | 66 | 257 | 0.0 | 0.0 | 0.00 | 0.00 | 0.00 | 82 | 1010.9 |
| 20260904100506 | 66 | 257 | 0.0 | 0.0 | 0.00 | 0.00 | 0.00 | 82 | 1011.0 |
| 20260904100036 | 65 | 249 | 0.0 | 0.0 | 0.00 | 0.00 | 0.00 | 82 | 1011.0 |
| 20260904095537 | 65 | 281 | 0.0 | 0.0 | 0.00 | 0.00 | 0.00 | 82 | 1011.0 |
| 20260904095037 | 65 | 264 | 0.0 | 0.0 | 0.00 | 0.00 | 0.00 | 82 | 1010.9 |
| 20260904094538 | 65 | 281 | 0.0 | 0.0 | 0.00 | 0.00 | 0.00 | 82 | 1010.9 |
| 20260904094036 | 65 | 268 | 0.0 | 0.0 | 0.00 | 0.00 | 0.00 | 82 | 1011.0 |
| 20260904093536 | 65 | 289 | 0.0 | 0.0 | 0.00 | 0.00 | 0.00 | 83 | 1010.9 |
| 20260904093035 | 65 | 267 | 0.0 | 0.0 | 0.00 | 0.00 | 0.00 | 83 | 1010.9 |
| 20260904092537 | 65 | 261 | 0.0 | 0.0 | 0.00 | 0.00 | 0.00 | 83 | 1011.0 |
| 20260904092255 | 65 | 268 | 0.0 | 0.0 | 0.00 | 0.00 | 0.00 | 82 | 1011.0 |
| 20260904091536 | 65 | 301 | 0.0 | 0.0 | 0.00 | 0.00 | 0.00 | 83 | 1011.0 |
| 20260904091254 | 65 | 281 | 0.0 | 0.0 | 0.00 | 0.00 | 0.00 | 83 | 1010.9 |
| 20260904090537 | 65 | 264 | 0.0 | 0.0 | 0.00 | 0.00 | 0.00 | 83 | 1011.0 |
| 20260904090037 | 65 | 254 | 0.0 | 0.0 | 0.00 | 0.00 | 0.00 | 83 | 1011.0 |
| 20260904085751 | 65 | 253 | 0.0 | 0.0 | 0.00 | 0.00 | 0.00 | 83 | 1011.0 |
| 20260904085035 | 65 | 251 | 0.0 | 0.0 | 0.00 | 0.00 | 0.00 | 84 | 1011.0 |
| 20260904084537 | 65 | 253 | 0.0 | 0.0 | 0.00 | 0.00 | 0.00 | 84 | 1011.0 |
| 20260904084036 | 65 | 260 | 0.0 | 0.0 | 0.00 | 0.00 | 0.00 | 84 | 1011.1 |
| 20260904083535 | 65 | 266 | 0.0 | 0.0 | 0.00 | 0.00 | 0.00 | 84 | 1011.2 |
| 20260904083034 | 65 | 252 | 0.0 | 0.0 | 0.00 | 0.00 | 0.00 | 85 | 1011.1 |
| 20260904082805 | 65 | 255 | 0.0 | 0.0 | 0.00 | 0.00 | 0.00 | 85 | 1011.1 |
| 20260904082257 | 65 | 271 | 0.0 | 0.0 | 0.00 | 0.00 | 0.00 | 85 | 1011.2 |
| 20260904081535 | 65 | 258 | 0.0 | 0.0 | 0.00 | 0.00 | 0.00 | 86 | 1011.2 |
| 20260904081034 | 65 | 256 | 0.0 | 0.0 | 0.00 | 0.00 | 0.00 | 86 | 1011.2 |
| 20260904080536 | 65 | 256 | 0.0 | 0.0 | 0.00 | 0.00 | 0.00 | 86 | 1011.3 |
| 20260904080035 | 65 | 255 | 0.0 | 0.0 | 0.00 | 0.00 | 0.00 | 86 | 1011.3 |
| 20260904075534 | 65 | 246 | 0.0 | 0.0 | 0.00 | 0.00 | 0.00 | 86 | 1011.4 |
| 20260904075033 | 65 | 245 | 0.0 | 0.0 | 0.00 | 0.00 | 0.00 | 86 | 1011.3 |
| 20260904074535 | 65 | 245 | 0.0 | 0.0 | 0.00 | 0.00 | 0.00 | 86 | 1011.4 |
| 20260904074035 | 65 | 248 | 0.0 | 0.0 | 0.00 | 0.00 | 0.00 | 87 | 1011.4 |
| 20260904073533 | 65 | 265 | 0.0 | 0.0 | 0.00 | 0.00 | 0.00 | 86 | 1011.4 |
| 20260904073034 | 65 | 259 | 0.0 | 0.0 | 0.00 | 0.00 | 0.00 | 86 | 1011.4 |
| 20260904072535 | 65 | 259 | 0.0 | 0.0 | 0.00 | 0.00 | 0.00 | 86 | 1011.4 |
| 20260904072035 | 65 | 259 | 0.0 | 0.0 | 0.00 | 0.00 | 0.00 | 86 | 1011.4 |
| 20260904071533 | 65 | 259 | 0.0 | 0.0 | 0.00 | 0.00 | 0.00 | 85 | 1011.4 |
| 20260904071033 | 65 | 260 | 0.0 | 0.0 | 0.00 | 0.00 | 0.00 | 85 | 1011.4 |
| 20260904070750 | 65 | 269 | 0.0 | 1.0 | 0.00 | 0.00 | 0.00 | 85 | 1011.4 |
| 20260904070035 | 65 | 258 | 0.0 | 2.0 | 0.00 | 0.00 | 0.00 | 85 | 1011.4 |
| 20260904065532 | 65 | 259 | 0.0 | 2.0 | 0.00 | 0.00 | 0.00 | 85 | 1011.4 |
| 20260904065254 | 65 | 256 | 0.0 | 3.0 | 0.00 | 0.00 | 0.00 | 85 | 1011.4 |
| 20260904064533 | 65 | 276 | 1.0 | 3.0 | 0.00 | 0.00 | 0.00 | 85 | 1011.4 |
| 20260904064033 | 65 | 301 | 3.0 | 5.0 | 0.00 | 0.00 | 0.00 | 85 | 1011.3 |
| 20260904063532 | 65 | 280 | 4.0 | 5.0 | 0.00 | 0.00 | 0.00 | 85 | 1011.4 |
| 20260904063032 | 65 | 273 | 2.0 | 5.0 | 0.00 | 0.00 | 0.00 | 84 | 1011.3 |
| 20260904062532 | 65 | 283 | 3.0 | 5.0 | 0.00 | 0.00 | 0.00 | 84 | 1011.4 |
| 20260904062252 | 65 | 271 | 2.0 | 5.0 | 0.00 | 0.00 | 0.00 | 84 | 1011.3 |
| 20260904061532 | 65 | 277 | 2.0 | 5.0 | 0.00 | 0.00 | 0.00 | 84 | 1011.3 |
| 20260904061032 | 65 | 293 | 2.0 | 3.0 | 0.00 | 0.00 | 0.00 | 84 | 1011.3 |
| 20260904060533 | 65 | 290 | 1.0 | 5.0 | 0.00 | 0.00 | 0.00 | 84 | 1011.4 |
| 20260904060033 | 66 | 297 | 3.0 | 5.0 | 0.00 | 0.00 | 0.00 | 84 | 1011.5 |
| 20260904055750 | 66 | 276 | 2.0 | 5.0 | 0.00 | 0.00 | 0.00 | 84 | 1011.3 |
| 20260904055031 | 66 | 256 | 2.0 | 5.0 | 0.00 | 0.00 | 0.00 | 84 | 1011.4 |
| 20260904054531 | 66 | 296 | 3.0 | 5.0 | 0.00 | 0.00 | 0.00 | 84 | 1011.4 |
| 20260904054033 | 66 | 275 | 1.0 | 6.0 | 0.00 | 0.00 | 0.00 | 84 | 1011.3 |
| 20260904053532 | 66 | 289 | 4.0 | 6.0 | 0.00 | 0.00 | 0.00 | 84 | 1011.2 |
| 20260904053031 | 66 | 274 | 1.0 | 5.0 | 0.00 | 0.00 | 0.00 | 84 | 1011.3 |
| 20260904052031 | 66 | 277 | 0.0 | 5.0 | 0.00 | 0.00 | 0.00 | 84 | 1011.4 |
| 20260904051531 | 66 | 263 | 2.0 | 5.0 | 0.00 | 0.00 | 0.00 | 84 | 1011.4 |
| 20260904051031 | 66 | 291 | 2.0 | 5.0 | 0.00 | 0.00 | 0.00 | 84 | 1011.4 |
| 20260904050530 | 66 | 281 | 3.0 | 5.0 | 0.00 | 0.00 | 0.00 | 83 | 1011.3 |
| 20260904050032 | 66 | 316 | 4.0 | 5.0 | 0.00 | 0.00 | 0.00 | 83 | 1011.2 |
| 20260904045532 | 66 | 285 | 3.0 | 6.0 | 0.00 | 0.00 | 0.00 | 83 | 1011.3 |
| 20260904045030 | 66 | 269 | 2.0 | 6.0 | 0.00 | 0.00 | 0.00 | 83 | 1011.3 |
| 20260904044530 | 66 | 320 | 4.0 | 6.0 | 0.00 | 0.00 | 0.00 | 83 | 1011.3 |
| 20260904044031 | 66 | 272 | 3.0 | 6.0 | 0.00 | 0.00 | 0.00 | 83 | 1011.3 |
| 20260904043531 | 67 | 274 | 4.0 | 6.0 | 0.00 | 0.00 | 0.00 | 82 | 1011.3 |
| 20260904043029 | 67 | 328 | 4.0 | 6.0 | 0.00 | 0.00 | 0.00 | 82 | 1011.4 |
| 20260904042529 | 67 | 283 | 2.0 | 7.0 | 0.00 | 0.00 | 0.00 | 82 | 1011.4 |
| 20260904042247 | 67 | 319 | 5.0 | 8.0 | 0.00 | 0.00 | 0.00 | 82 | 1011.3 |
| 20260904041531 | 67 | 354 | 5.0 | 8.0 | 0.00 | 0.00 | 0.00 | 82 | 1011.3 |
| 20260904041029 | 67 | 343 | 6.0 | 8.0 | 0.00 | 0.00 | 0.00 | 82 | 1011.4 |
| 20260904040529 | 67 | 322 | 5.0 | 7.0 | 0.00 | 0.00 | 0.00 | 82 | 1011.2 |
| 20260904040029 | 67 | 316 | 7.0 | 7.0 | 0.00 | 0.00 | 0.00 | 82 | 1011.2 |
| 20260904035529 | 67 | 346 | 3.0 | 7.0 | 0.00 | 0.00 | 0.00 | 82 | 1011.2 |
| 20260904035029 | 67 | 264 | 2.0 | 6.0 | 0.00 | 0.00 | 0.00 | 82 | 1011.1 |
| 20260904034529 | 67 | 313 | 4.0 | 7.0 | 0.00 | 0.00 | 0.00 | 82 | 1011.1 |
| 20260904034029 | 67 | 328 | 3.0 | 7.0 | 0.00 | 0.00 | 0.00 | 82 | 1011.2 |
| 20260904033530 | 67 | 328 | 2.0 | 7.0 | 0.00 | 0.00 | 0.00 | 82 | 1011.1 |
| 20260904033030 | 67 | 296 | 3.0 | 7.0 | 0.00 | 0.00 | 0.00 | 82 | 1011.1 |
| 20260904032529 | 67 | 313 | 4.0 | 7.0 | 0.00 | 0.00 | 0.00 | 82 | 1011.1 |
| 20260904032248 | 67 | 358 | 5.0 | 7.0 | 0.00 | 0.00 | 0.00 | 81 | 1011.0 |
| 20260904031529 | 67 | 273 | 2.0 | 8.0 | 0.00 | 0.00 | 0.00 | 80 | 1010.9 |
| 20260904031250 | 67 | 349 | 5.0 | 8.0 | 0.00 | 0.00 | 0.00 | 81 | 1011.0 |
| 20260904030528 | 67 | 290 | 6.0 | 8.0 | 0.00 | 0.00 | 0.00 | 81 | 1010.9 |
| 20260904030028 | 67 | 276 | 4.0 | 8.0 | 0.00 | 0.00 | 0.00 | 80 | 1010.9 |
| 20260904025529 | 67 | 314 | 5.0 | 9.0 | 0.00 | 0.00 | 0.00 | 80 | 1010.8 |
| 20260904024527 | 67 | 335 | 5.0 | 9.0 | 0.00 | 0.00 | 0.00 | 80 | 1010.9 |
| 20260904024027 | 67 | 69 | 5.0 | 9.0 | 0.00 | 0.00 | 0.00 | 80 | 1010.8 |
| 20260904023529 | 67 | 339 | 6.0 | 9.0 | 0.00 | 0.00 | 0.00 | 80 | 1010.7 |
| 20260904023029 | 67 | 342 | 6.0 | 9.0 | 0.00 | 0.00 | 0.00 | 80 | 1010.8 |
| 20260904022747 | 67 | 317 | 3.0 | 8.0 | 0.00 | 0.00 | 0.00 | 80 | 1010.7 |
| 20260904022027 | 68 | 273 | 2.0 | 6.0 | 0.00 | 0.00 | 0.00 | 82 | 1010.7 |
| 20260904021528 | 68 | 289 | 2.0 | 7.0 | 0.00 | 0.00 | 0.00 | 82 | 1010.7 |
| 20260904021028 | 68 | 273 | 1.0 | 7.0 | 0.00 | 0.00 | 0.00 | 82 | 1010.7 |
| 20260904020526 | 69 | 283 | 2.0 | 7.0 | 0.00 | 0.00 | 0.00 | 82 | 1010.8 |
| 20260904020027 | 69 | 263 | 3.0 | 7.0 | 0.00 | 0.00 | 0.00 | 81 | 1010.8 |
| 20260904015527 | 69 | 271 | 3.0 | 7.0 | 0.00 | 0.00 | 0.00 | 80 | 1010.9 |
| 20260904015027 | 69 | 254 | 3.0 | 7.0 | 0.00 | 0.00 | 0.00 | 80 | 1010.9 |
| 20260904014526 | 70 | 322 | 1.0 | 7.0 | 0.00 | 0.00 | 0.00 | 79 | 1010.8 |
| 20260904014026 | 70 | 303 | 2.0 | 7.0 | 0.00 | 0.00 | 0.00 | 79 | 1010.9 |
| 20260904013527 | 70 | 314 | 3.0 | 6.0 | 0.00 | 0.00 | 0.00 | 78 | 1010.9 |
| 20260904013027 | 70 | 327 | 4.0 | 7.0 | 0.00 | 0.00 | 0.00 | 78 | 1011.0 |
| 20260904012526 | 71 | 277 | 1.0 | 7.0 | 0.00 | 0.00 | 0.00 | 77 | 1011.0 |
| 20260904012026 | 71 | 274 | 1.0 | 7.0 | 0.00 | 0.00 | 0.00 | 77 | 1011.0 |
| 20260904011749 | 71 | 276 | 0.0 | 7.0 | 0.00 | 0.00 | 0.00 | 77 | 1011.0 |
| 20260904011027 | 71 | 351 | 2.0 | 7.0 | 0.00 | 0.00 | 0.00 | 76 | 1011.0 |
| 20260904010525 | 71 | 296 | 3.0 | 6.0 | 0.00 | 0.00 | 0.00 | 75 | 1011.0 |
| 20260904005751 | 71 | 251 | 3.0 | 8.0 | 0.00 | 0.00 | 0.00 | 74 | 1011.0 |
| 20260904005026 | 70 | 254 | 2.0 | 8.0 | 0.00 | 0.00 | 0.00 | 76 | 1011.1 |
| 20260904004525 | 70 | 275 | 0.0 | 7.0 | 0.00 | 0.00 | 0.00 | 77 | 1011.0 |
| 20260904004025 | 70 | 269 | 4.0 | 10.0 | 0.00 | 0.00 | 0.00 | 77 | 1011.1 |
| 20260904003526 | 70 | 302 | 4.0 | 13.0 | 0.00 | 0.00 | 0.00 | 75 | 1011.0 |
| 20260904003248 | 70 | 332 | 3.0 | 13.0 | 0.00 | 0.00 | 0.00 | 76 | 1011.1 |
| 20260904002525 | 70 | 351 | 6.0 | 10.0 | 0.00 | 0.00 | 0.00 | 78 | 1010.9 |
| 20260904002240 | 71 | 301 | 7.0 | 10.0 | 0.00 | 0.00 | 0.00 | 78 | 1011.0 |
| 20260904001524 | 71 | 339 | 4.0 | 12.0 | 0.00 | 0.00 | 0.00 | 77 | 1011.0 |
| 20260904001025 | 71 | 3 | 3.0 | 12.0 | 0.00 | 0.00 | 0.00 | 77 | 1011.0 |
| 20260904000525 | 71 | 290 | 5.0 | 10.0 | 0.00 | 0.00 | 0.00 | 75 | 1011.0 |
| 20260904000024 | 71 | 330 | 2.0 | 9.0 | 0.00 | 0.00 | 0.00 | 76 | 1010.9 |
| 20260903235524 | 71 | 358 | 5.0 | 12.0 | 0.00 | 0.00 | 0.00 | 76 | 1011.0 |
| 20260903235025 | 71 | 294 | 5.0 | 12.0 | 0.00 | 0.00 | 0.00 | 75 | 1011.1 |
| 20260903234524 | 71 | 237 | 5.0 | 10.0 | 0.00 | 0.00 | 0.00 | 75 | 1011.1 |
| 20260903233523 | 72 | 322 | 4.0 | 15.0 | 0.00 | 0.00 | 0.00 | 75 | 1011.2 |
| 20260903233250 | 72 | 351 | 11.0 | 15.0 | 0.00 | 0.00 | 0.00 | 74 | 1011.1 |
| 20260903232525 | 72 | 343 | 11.0 | 16.0 | 0.00 | 0.00 | 0.00 | 74 | 1011.3 |
| 20260903232022 | 72 | 353 | 5.0 | 16.0 | 0.00 | 0.00 | 0.00 | 72 | 1011.3 |
| 20260903231523 | 72 | 281 | 7.0 | 12.0 | 0.00 | 0.00 | 0.00 | 73 | 1011.3 |
| 20260903231024 | 72 | 359 | 6.0 | 14.0 | 0.00 | 0.00 | 0.00 | 72 | 1011.3 |
| 20260903230523 | 72 | 282 | 4.0 | 14.0 | 0.00 | 0.00 | 0.00 | 71 | 1011.3 |
| 20260903230022 | 73 | 340 | 9.0 | 15.0 | 0.00 | 0.00 | 0.00 | 72 | 1011.3 |
| 20260903225522 | 73 | 353 | 9.0 | 15.0 | 0.00 | 0.00 | 0.00 | 73 | 1011.3 |
| 20260903225247 | 73 | 278 | 6.0 | 16.0 | 0.00 | 0.00 | 0.00 | 70 | 1011.4 |
| 20260903224523 | 73 | 5 | 2.0 | 16.0 | 0.00 | 0.00 | 0.00 | 70 | 1011.4 |
| 20260903224022 | 73 | 337 | 9.0 | 12.0 | 0.00 | 0.00 | 0.00 | 70 | 1011.4 |
| 20260903223522 | 73 | 253 | 4.0 | 12.0 | 0.00 | 0.00 | 0.00 | 69 | 1011.5 |
| 20260903223023 | 73 | 332 | 8.0 | 13.0 | 0.00 | 0.00 | 0.00 | 69 | 1011.6 |
| 20260903222523 | 73 | 303 | 4.0 | 13.0 | 0.00 | 0.00 | 0.00 | 70 | 1011.8 |
| 20260903222021 | 73 | 340 | 7.0 | 14.0 | 0.00 | 0.00 | 0.00 | 71 | 1011.7 |
| 20260903221740 | 73 | 4 | 5.0 | 14.0 | 0.00 | 0.00 | 0.00 | 71 | 1011.7 |
| 20260903221022 | 74 | 272 | 4.0 | 14.0 | 0.00 | 0.00 | 0.00 | 70 | 1011.7 |
| 20260903220522 | 74 | 353 | 6.0 | 13.0 | 0.00 | 0.00 | 0.00 | 73 | 1011.6 |
| 20260903220021 | 74 | 321 | 4.0 | 15.0 | 0.00 | 0.00 | 0.00 | 70 | 1011.7 |
| 20260903215521 | 74 | 354 | 9.0 | 15.0 | 0.00 | 0.00 | 0.00 | 72 | 1011.7 |
| 20260903215021 | 74 | 346 | 4.0 | 10.0 | 0.00 | 0.00 | 0.00 | 69 | 1011.7 |
| 20260903214522 | 74 | 328 | 1.0 | 16.0 | 0.00 | 0.00 | 0.00 | 69 | 1011.8 |
| 20260903214021 | 74 | 268 | 7.0 | 16.0 | 0.00 | 0.00 | 0.00 | 69 | 1011.9 |
| 20260903213520 | 74 | 291 | 3.0 | 15.0 | 0.00 | 0.00 | 0.00 | 66 | 1011.9 |
| 20260903213020 | 74 | 329 | 3.0 | 15.0 | 0.00 | 0.00 | 0.00 | 71 | 1011.9 |
| 20260903212522 | 75 | 14 | 6.0 | 12.0 | 0.00 | 0.00 | 0.00 | 71 | 1011.9 |
| 20260903212021 | 75 | 305 | 5.0 | 10.0 | 0.00 | 0.00 | 0.00 | 71 | 1011.9 |
| 20260903211520 | 75 | 257 | 4.0 | 8.0 | 0.00 | 0.00 | 0.00 | 66 | 1012.0 |
| 20260903211019 | 74 | 272 | 5.0 | 10.0 | 0.00 | 0.00 | 0.00 | 68 | 1012.0 |
| 20260903210521 | 74 | 266 | 3.0 | 10.0 | 0.00 | 0.00 | 0.00 | 68 | 1012.0 |
| 20260903210021 | 74 | 63 | 4.0 | 10.0 | 0.00 | 0.00 | 0.00 | 71 | 1012.1 |
| 20260903205520 | 74 | 245 | 8.0 | 9.0 | 0.00 | 0.00 | 0.00 | 64 | 1012.1 |
| 20260903205019 | 74 | 1 | 4.0 | 10.0 | 0.00 | 0.00 | 0.00 | 68 | 1012.1 |
| 20260903204744 | 74 | 355 | 4.0 | 10.0 | 0.00 | 0.00 | 0.00 | 67 | 1012.0 |
| 20260903204020 | 74 | 358 | 5.0 | 10.0 | 0.00 | 0.00 | 0.00 | 67 | 1012.0 |
| 20260903203519 | 74 | 280 | 4.0 | 13.0 | 0.00 | 0.00 | 0.00 | 67 | 1011.9 |
| 20260903203238 | 73 | 293 | 5.0 | 13.0 | 0.00 | 0.00 | 0.00 | 68 | 1011.9 |
| 20260903202747 | 73 | 318 | 7.0 | 12.0 | 0.00 | 0.00 | 0.00 | 69 | 1012.0 |
| 20260903202019 | 73 | 272 | 5.0 | 12.0 | 0.00 | 0.00 | 0.00 | 71 | 1012.1 |
| 20260903201740 | 73 | 335 | 8.0 | 10.0 | 0.00 | 0.00 | 0.00 | 69 | 1012.1 |